User: anonymous   Login
Location: Vancouver
(49.2500°N, 123.1330°W)
Time: 14:54:36
(UTC-08:00)
Language:

YAOGAN 6 - Orbit

View from above orbital plane
View from above orbital plane
View from above satellite
View from above satellite

Ground track
Ground track

The orbit data is extracted from the following two-line orbital elements,

1 34839U 09021A   17023.50286803  .00000641  00000-0  27804-4 0  9990
2 34839  97.1665  80.3630 0030657 113.0042 247.4436 15.25390599430538
Epoch (UTC): 23 January 2017 12:04:07
Eccentricity: 0.0030657
inclination: 97.1665°
perigee height: 468 km
apogee height: 510 km
right ascension of ascending node: 80.3630°
argument of perigee: 113.0042°
revolutions per day: 15.25390599
mean anomaly at epoch: 247.4436°
orbit number at epoch: 43053

The dashed part of the orbit path shows where the satellite is in the earth's shadow,  

DLR